"Pseudo-MPEC" for P20OVv2

Created 2019 Jun 18 15:07:54 UT using Find_Orb

Click here for an explanation of pseudo-MPECs

 
 Astrometry: 
     P20OVv2  C2019 05 30)HH(o.!o0!2E218=G=Nv[4P=^Sg[%n(q!w%Fj#3p#E[;]2DYGXc?F51
     P20OVv2  C2019 05 30==,xBTp$%q!+sOQ5yT4[IP5uw\SaUJ$;ps%ujZZd\coKc#_DL6b;F51
     P20OVv2  C2019 05 30e9wSCXnE3ln/L(MclBhUENyK;f)T=!UJDgsjk.l_qshD64@$ie,hF51
     P20OVv2  C2019 05 30jJ]V-7t/Fx-4qQ4c`[1.D0DXPGp/i`YL=AdkPAstrometry0C7xoF51
     P20OVv2  C2019 06 03igX)H4:0YJ.7U09K?\1S/(NMMX7qo6f^Wxg%f\iE`w7;-Pf'2R4uF51
     P20OVv2  C2019 06 03Zbb@:3i*SNa+o@q+/=lredacted;,.am8(NJZnXVRCBFvJ-'sMy%F51
     P20OVv2  C2019 06 106pKv$2jp:r@N5tCmwSFmwhnsl!Ue)Tjs$op\\`Rv2LKGGH;x!;kxF52
     P20OVv2  C2019 06 10]_rO;M:x[_q9TAu6''g:Sl;T:VR;Kxn.]f]RmRP(7AECp6%QWs^#F52
     P20OVv2  C2019 06 1049=EE2pCY[Fp3mHu9tp9=@)vq`o0c^IZ]Hl-lMf's]:g_2y,g8$aF52
     P20OVv2  C2019 06 10AY[JixblXE:$,`Qsg%0\FoHbHUO`37[3Jclickp7heremny9x-_+F52
     P20OVv2 KC2019 06 11njX5oBK;7tX:)aTR6)V`uI/tiMJNXrs6aB238Iap=jWr`0bifHj1H21
     P20OVv2 KC2019 06 119`!@0)x\hDE1]#r-Abd9NUEo#d95WyjwdsuFP=DuqU2tM?oi]bEfH21
     P20OVv2  C2019 06 11=k5uUN02'/EM^l#UjRLFdM]p=u2b;P-PKbX5N9i7_u+tPuLVAkWoF51
     P20OVv2  C2019 06 11N'f#9(i6HnRZ)'tL3in=x9iU5Zf^cmJf,,_PBaDOB(VpTN)wB!:uF51
     P20OVv2  C2019 06 11n^P)g'ckHoR-yNforHD#jY:4bwf*x%md/P]%rdh=f8oM7Dv5G@;[F51
     P20OVv2  C2019 06 11[*CXpM1P-X;bRBZpdx]m0n7,)_Myexplanation@b)ctyj+Ow=DnF52
     P20OVv2  C2019 06 11vj:mT8*1`:%wG.6Na06jM0CrpsIgq=mHa.opy'`9,8`nNhV9$fiDF52

Station data:
(F51) Pan-STARRS 1, Haleakala  (N20.707235 W156.255910)  US/Hawaii.
   Observers N. Primak, A. Schultz, S. Watters, J. Thiel, T. Goggia. Measurer
   PS1 Science Consortium. 1.8-m Ritchey-Chrétien + CCD.
(F52) Pan-STARRS 2, Haleakala  (N20.707384 W156.255910)  US/Hawaii. 1.8-m
   Ritchey-Chrétien + CCD.
(H21) Astronomical Research Observatory, Westfield  (N39.483057 W87.968270)
   US/Illinois. 0.76-m f/3.0 astrograph + CCD.

Orbital elements:  P20OVv2
   Perihelion 2019 Sep 27.406815 +/- 0.108 TT =  9:45:48 (JD 2458753.906815)
Epoch 2019 Jun 11.0 TT = JDT 2458645.5   Earth MOID: 0.0720   Ve: 0.0889
M 234.52303277 +/- 0.15             (J2000 ecliptic)          AutoNEOCP
n   1.15746382 +/- 0.000257         Peri.  178.77436 +/- 0.08
a   0.89838901 +/- 0.000133         Node   237.70016 +/- 0.06
e   0.3284766 +/- 0.000874          Incl.    5.48698 +/- 0.025
P   0.85/311.02d           H 23.3   G  0.15   U  7.2  
q 0.60328924 +/- 0.000702    Q 1.19348878 +/- 0.000954
From 17 observations 2019 May 30-June 11; mean residual 0".30
Residuals in arcseconds: 
190530 F51  .01+  .19+    190610 F52  .00   .33-    190611 F51  .06+  .46-    
190530 F51  .11-  .06-    190610 F52  .30+  .23-    190611 F51  .23+  .04-    
190530 F51  .20-  .12-    190610 F52  .11+  .21-    190611 F51  .10+  .47-    
190530 F51  .08+  .01+    190610 F52  .15+  .35-    190611 F52  .06+  .17-    
190603 F51  .12+  .03-    190611 H21  .47-  .48+    190611 F52  .27+  .17+    
190603 F51  .09+  .07+    190611 H21  .51-  1.0+    

Ephemerides (geocentric):
Date (UTC) HH   RA              Dec         delta   r     elong  mag " sig PA
---- -- -- --  -------------   -----------  ------ ------ -----  --- ---- ---
2019 06 18 15  21 10 17.389   +10 21 21.07  .13867 1.0915 119.8 21.2 3.22 177
2019 06 18 16  21 10 23.025   +10 25 20.62  .13848 1.0914 119.8 21.2 3.25 177
2019 06 18 17  21 10 28.673   +10 29 20.78  .13828 1.0912 119.7 21.2 3.29 177
2019 06 18 18  21 10 34.333   +10 33 21.53  .13809 1.0911 119.7 21.2 3.33 177
2019 06 18 19  21 10 40.004   +10 37 22.88  .13790 1.0909 119.7 21.2 3.37 177
2019 06 18 20  21 10 45.687   +10 41 24.84  .13770 1.0908 119.7 21.2 3.41 177
2019 06 18 21  21 10 51.382   +10 45 27.40  .13751 1.0906 119.6 21.2 3.45 177
2019 06 18 22  21 10 57.088   +10 49 30.57  .13732 1.0904 119.6 21.2 3.49 177
2019 06 18 23  21 11 02.806   +10 53 34.34  .13712 1.0903 119.6 21.2 3.53 178
2019 06 19 00  21 11 08.536   +10 57 38.73  .13693 1.0901 119.6 21.2 3.57 178
2019 06 19 01  21 11 14.279   +11 01 43.72  .13674 1.0900 119.5 21.2 3.61 178
2019 06 19 02  21 11 20.033   +11 05 49.33  .13655 1.0898 119.5 21.2 3.65 178
2019 06 19 03  21 11 25.799   +11 09 55.56  .13636 1.0897 119.5 21.2 3.69 178
2019 06 19 04  21 11 31.578   +11 14 02.40  .13616 1.0895 119.5 21.2 3.73 178
2019 06 19 05  21 11 37.368   +11 18 09.86  .13597 1.0894 119.4 21.2 3.77 178
2019 06 19 06  21 11 43.171   +11 22 17.94  .13578 1.0892 119.4 21.2 3.81 178
2019 06 19 07  21 11 48.987   +11 26 26.65  .13559 1.0890 119.4 21.2 3.86 178
2019 06 19 08  21 11 54.815   +11 30 35.98  .13540 1.0889 119.4 21.2 3.90 178
2019 06 19 09  21 12 00.656   +11 34 45.94  .13521 1.0887 119.3 21.2 3.94 178
2019 06 19 10  21 12 06.509   +11 38 56.52  .13502 1.0886 119.3 21.2 3.99 179
2019 06 19 11  21 12 12.375   +11 43 07.73  .13483 1.0884 119.3 21.2 4.03 179
2019 06 19 12  21 12 18.253   +11 47 19.58  .13464 1.0883 119.3 21.1 4.08 179
2019 06 19 13  21 12 24.145   +11 51 32.06  .13445 1.0881 119.2 21.1 4.12 179
2019 06 19 14  21 12 30.050   +11 55 45.18  .13426 1.0879 119.2 21.1 4.17 179
2019 06 19 15  21 12 35.967   +11 59 58.93  .13407 1.0878 119.2 21.1 4.21 179
2019 06 19 16  21 12 41.898   +12 04 13.32  .13388 1.0876 119.2 21.1 4.26 179
2019 06 19 17  21 12 47.841   +12 08 28.36  .13369 1.0875 119.1 21.1 4.30 179
2019 06 19 18  21 12 53.798   +12 12 44.03  .13350 1.0873 119.1 21.1 4.35 179
2019 06 19 19  21 12 59.769   +12 17 00.35  .13331 1.0872 119.1 21.1 4.40 179
2019 06 19 20  21 13 05.752   +12 21 17.32  .13313 1.0870 119.0 21.1 4.45   0
2019 06 19 21  21 13 11.750   +12 25 34.94  .13294 1.0868 119.0 21.1 4.49   0
2019 06 19 22  21 13 17.760   +12 29 53.21  .13275 1.0867 119.0 21.1 4.54   0
2019 06 19 23  21 13 23.785   +12 34 12.13  .13256 1.0865 119.0 21.1 4.59   0
2019 06 20 00  21 13 29.823   +12 38 31.71  .13238 1.0864 118.9 21.1 4.64   0
2019 06 20 01  21 13 35.874   +12 42 51.94  .13219 1.0862 118.9 21.1 4.69   0
2019 06 20 02  21 13 41.940   +12 47 12.83  .13200 1.0860 118.9 21.1 4.74   0
2019 06 20 03  21 13 48.020   +12 51 34.38  .13181 1.0859 118.9 21.1 4.79   0
2019 06 20 04  21 13 54.114   +12 55 56.59  .13163 1.0857 118.8 21.1 4.84   0
2019 06 20 05  21 14 00.221   +13 00 19.47  .13144 1.0856 118.8 21.1 4.89   0
2019 06 20 06  21 14 06.344   +13 04 43.01  .13126 1.0854 118.8 21.1 4.95   0
2019 06 20 07  21 14 12.480   +13 09 07.22  .13107 1.0853 118.7 21.1 5.00   0
2019 06 20 08  21 14 18.631   +13 13 32.10  .13088 1.0851 118.7 21.1 5.05   1
2019 06 20 09  21 14 24.796   +13 17 57.65  .13070 1.0849 118.7 21.1 5.10   1
2019 06 20 10  21 14 30.975   +13 22 23.88  .13051 1.0848 118.6 21.1 5.16   1
2019 06 20 11  21 14 37.170   +13 26 50.78  .13033 1.0846 118.6 21.1 5.21   1
2019 06 20 12  21 14 43.379   +13 31 18.36  .13014 1.0845 118.6 21.1 5.27   1
2019 06 20 13  21 14 49.603   +13 35 46.61  .12996 1.0843 118.5 21.1 5.32   1
2019 06 20 14  21 14 55.842   +13 40 15.55  .12978 1.0841 118.5 21.1 5.38   1